Apalachicola, FL

8:04 AM EDT on May 25, 2017 (GMT -0400)
Apalachicola Municipal

Weather History for KAAF - February, 2014

Change the Weather History Date:

Thursday, February 6, 2014

  Actual Average Record
Temperature  
Mean Temperature 48 °F 54 °F  
Max Temperature 53 °F 65 °F 77 °F (1948)
Min Temperature 42 °F 43 °F 26 °F (2009)
Degree Days  
Heating Degree Days 17    
Month to date heating degree days 28  
Since 1 July heating degree days 783  
Cooling Degree Days 0    
Month to date cooling degree days 0  
Year to date cooling degree days 1  
Moisture  
Dew Point 36 °F    
Average Humidity 70    
Maximum Humidity 89    
Minimum Humidity 50    
Precipitation  
Precipitation 0.44 in 0.14 in 1.95 in (1955)
Month to date precipitation 0.58 0.86  
Year to date precipitation 6.06 5.26  
Sea Level Pressure  
Sea Level Pressure 30.22 in    
Wind  
Wind Speed 11 mph (NNE)    
Max Wind Speed 21 mph    
Max Gust Speed 28 mph    
Visibility 8 miles    
Events Rain    
T = Trace of Precipitation, MM = Missing Value Source: NWS Daily Summary

Daily Weather History Graph

Daily Weather History Graph

Search for Another Location

Airport or City:

Trip Planner

Search our weather history database for the weather conditions in past years. The results will help you decide how hot, cold, wet, or windy it might be!

Date:

Astronomy

Feb. 06, 2014 Rise Set
Actual Time 7:26 AM EST 6:22 PM EST
Civil Twilight 7:01 AM EST 6:46 PM EST
Nautical Twilight 6:33 AM EST 7:15 PM EST
Astronomical Twilight 6:05 AM EST 7:43 PM EST
Moon 11:54 AM EST (2/6) 12:41 AM EST (2/6)
Length of Visible Light 11h 44m
Length of Day
10h 55m
Waxing Crescent, 49% of the Moon is Illuminated
Feb 6
Waxing Crescent
Feb 6
First Quarter
Feb 14
Full
Feb 22
Last Quarter
Mar 1
New

Hourly Weather History & Observations

Time (EST) Temp. Windchill Dew Point Humidity Pressure Visibility Wind Dir Wind Speed Gust Speed Precip Events Conditions
12:53 AM 48.0 °F - 36.0 °F 63% 30.16 in 10.0 mi North 16.1 mph 25.3 mph N/A   Clear
1:53 AM 46.9 °F - 35.1 °F 63% 30.16 in 10.0 mi North 13.8 mph - N/A   Mostly Cloudy
2:53 AM 45.0 °F 38.9 °F 34.0 °F 65% 30.17 in 10.0 mi NNE 12.7 mph 19.6 mph N/A   Partly Cloudy
3:53 AM 44.1 °F 37.1 °F 33.1 °F 65% 30.15 in 10.0 mi NNE 15.0 mph 26.5 mph N/A   Overcast
4:53 AM 43.0 °F 36.8 °F 33.1 °F 68% 30.17 in 10.0 mi NNE 11.5 mph 20.7 mph N/A   Clear
5:53 AM 43.0 °F 36.0 °F 32.0 °F 65% 30.18 in 10.0 mi NNE 13.8 mph 18.4 mph N/A   Clear
6:53 AM 42.1 °F 34.5 °F 30.9 °F 65% 30.20 in 10.0 mi NNE 15.0 mph 20.7 mph N/A   Clear
7:53 AM 42.1 °F 36.1 °F 30.9 °F 65% 30.22 in 10.0 mi NNE 10.4 mph - N/A   Overcast
8:53 AM 43.0 °F 36.0 °F 30.9 °F 62% 30.24 in 10.0 mi NE 13.8 mph - N/A   Scattered Clouds
9:53 AM 45.0 °F 39.3 °F 30.9 °F 58% 30.25 in 10.0 mi NE 11.5 mph - N/A   Overcast
10:53 AM 50.0 °F - 32.0 °F 50% 30.23 in 10.0 mi NNE 13.8 mph 19.6 mph N/A   Clear
11:53 AM 50.0 °F - 33.1 °F 52% 30.20 in 10.0 mi North 13.8 mph - N/A   Mostly Cloudy
12:53 PM 50.0 °F - 33.1 °F 52% 30.20 in 10.0 mi NE 8.1 mph - N/A   Overcast
1:48 PM 46.4 °F 42.9 °F 35.6 °F 66% 30.22 in 1.8 mi NNW 6.9 mph - 0.04 in Rain Heavy Rain
1:53 PM 46.0 °F 41.0 °F 37.0 °F 71% 30.20 in 2.0 mi North 10.4 mph - 0.07 in Rain Rain
2:01 PM 46.4 °F 42.9 °F 37.4 °F 71% 30.19 in 5.0 mi NNE 6.9 mph - 0.01 in Rain Rain
2:53 PM 44.1 °F 40.8 °F 39.0 °F 82% 30.18 in 4.0 mi ENE 5.8 mph - 0.12 in Rain Rain
3:53 PM 46.0 °F 41.0 °F 39.9 °F 79% 30.18 in 10.0 mi NNE 10.4 mph - 0.08 in Rain Light Rain
4:43 PM 44.6 °F 38.8 °F 39.2 °F 81% 30.23 in 6.0 mi North 11.5 mph - 0.00 in Rain Light Rain
4:53 PM 45.0 °F 41.2 °F 39.9 °F 82% 30.24 in 5.0 mi North 6.9 mph - 0.00 in Rain Light Rain
5:01 PM 44.6 °F 40.2 °F 39.2 °F 81% 30.24 in 6.0 mi North 8.1 mph - 0.00 in Rain Light Rain
5:31 PM 44.6 °F 40.2 °F 39.2 °F 81% 30.25 in 4.0 mi North 8.1 mph - 0.03 in Rain Light Rain
5:45 PM 44.6 °F 41.4 °F 39.2 °F 81% 30.25 in 2.5 mi NNW 5.8 mph - 0.05 in Rain Rain
5:53 PM 44.1 °F 40.1 °F 39.9 °F 85% 30.25 in 3.0 mi North 6.9 mph - 0.07 in Rain Light Rain
6:12 PM 44.6 °F 38.4 °F 39.2 °F 81% 30.26 in 5.0 mi North 12.7 mph - 0.02 in Rain Light Rain
6:31 PM 42.8 °F 37.5 °F 39.2 °F 87% 30.29 in 6.0 mi NNW 9.2 mph - 0.03 in Rain Rain
6:53 PM 43.0 °F 36.8 °F 39.0 °F 86% 30.27 in 5.0 mi North 11.5 mph - 0.06 in Rain Rain
7:25 PM 42.8 °F 36.2 °F 39.2 °F 87% 30.27 in 6.0 mi North 12.7 mph - 0.03 in Rain Light Rain
7:53 PM 43.0 °F 36.8 °F 37.9 °F 82% 30.27 in 9.0 mi North 11.5 mph - 0.03 in   Overcast
8:53 PM 42.1 °F 35.7 °F 37.9 °F 85% 30.29 in 9.0 mi North 11.5 mph 19.6 mph N/A   Overcast
9:53 PM 42.1 °F 36.1 °F 37.9 °F 85% 30.28 in 7.0 mi NNE 10.4 mph - 0.01 in Rain Light Rain
10:53 PM 42.1 °F 37.7 °F 37.9 °F 85% 30.27 in 8.0 mi NNE 6.9 mph - 0.00 in Rain Light Rain
11:24 PM 42.8 °F 37.5 °F 37.4 °F 81% 30.27 in 9.0 mi NNE 9.2 mph - 0.00 in   Mostly Cloudy
11:53 PM 42.1 °F 37.1 °F 37.9 °F 85% 30.27 in 8.0 mi North 8.1 mph - 0.00 in   Overcast